sat.trackr.live / text

‹ back to catalog

STARLINK-32319

NORAD 61528 · 2024-183V

PAYLOAD ACTIVE UNKNOWN

§ Identity

Operator
Country
US
Launch date
2024-10-15
Launch site
AFETR
Launch vehicle
Mass (kg)
RCS (m²)

Purposes: comms

External: N2YO · Heavens-Above · Gunter

§ Orbital elements

Epoch: 2026-05-25T05:04:32.956320Z

Period
94.11 min
Inclination
53.1595°
Eccentricity
0.0001164
Mean motion
15.30195368 rev/d
Perigee alt
474.4 km
Apogee alt
476.0 km
Semi-major
6,853.4 km
B*
3.4454e-5
RAAN
147.3276°
Arg perigee
78.2018°
Mean anomaly
281.9113°
Rev number
9,136

§ Raw data

STARLINK-323191 61528U 24183V   26145.21149255  .00000661  00000+0  34454-4 0  99932 61528  53.1595 147.3276 0001164  78.2018 281.9113 15.30195368 91365

JSON: /api/v1/satellites/61528 · /tle

For live sub-satellite position, see the globe view (requires WebGL).

§ Visibility from observer

Set your observer location to see the next 7 days of passes ≥ 10°. The values pass through the URL so the page stays shareable.

No JS? Fill the form by hand. The geolocation button needs JavaScript.